Location: Davidschlag
(48.4333°N, 14.2833°E)
Time: 08:37:54
(UTC+00:00)

STARLINK-1017 - Pass Details

Date: 27 February 2020
Orbit: 549 x 550 km, 53.0° (Epoch: 04 April)

Event Time Altitude Azimuth Distance (km) Brightness Sun altitude
Rises 18:30:14 0° 287° (WNW) 2,727 8.8 -18.6°
Reaches altitude 10° 18:32:33 10° 293° (WNW) 1,833 7.4 -18.9°
Maximum altitude 18:36:34 46° 7° (N) 752 4.2 -19.6°
Enters shadow 18:37:30 39° 46° (NE) 845 4.2 -19.8°
